Home   Weather   Kreuztal   Past weeks

Flag for Germany Past Weather in Kreuztal, North Rhine-Westphalia, Germany — Yesterday and Last 2 Weeks

Now
66 °F

Sunny.


Feels Like: 66 °F
Forecast: 48 / 75 °F
Wind: 8 mph from Southeast

Location: Hessen

Current Time: Aug 30, 2016 at 7:16:28 PM

Latest Report: Aug 30, 2016 at 6:50 PM


Visibility: 10 mi

Pressure: 30.27 "Hg

Humidity: 49%

Dew Point: 46 °F

Location of KreuztalLocation

Past Weather in Kreuztal — Graph

°F

Kreuztal Temperature Yesterday

Maximum temperature yesterday: 64 °F (at 12:50 PM)
Minimum temperature yesterday: 57 °F (at 5:20 PM)
Average temperature yesterday: 61 °F

High & Low Weather Summary for the Past Weeks

 TemperatureHumidityPressure
High88 °F (Aug 27, 3:50 PM)100% (Aug 20, 7:50 AM)30.39 "Hg (Aug 20, 7:50 AM)
Low52 °F (Aug 22, 7:20 AM)33% (Aug 26, 4:50 PM)29.83 "Hg (Aug 18, 3:50 PM)
Average68 °F66%30.11 "Hg
* Reported Aug 15 5:20 PM — Aug 30 5:50 PM, Kreuztal, Weather by CustomWeather, © 2016

Note: Actual official high and low records may vary slightly from our data, if they occured in-between our weather recording intervals... More about our weather records

Advertising

Kreuztal Weather History for the Previous 24 Hours

Scroll right to see more
 ConditionsComfort  
Time TempWeatherWind HumidityBarometerVisibility
5:50 PM
Tue, Aug 30
68 °FPassing clouds.7 mph46%30.27 "HgN/A
5:20 PM70 °FPassing clouds.6 mph43%30.27 "HgN/A
4:50 PM70 °FPassing clouds.7 mph46%30.27 "HgN/A
4:20 PM68 °FPassing clouds.6 mph49%30.27 "HgN/A
3:50 PM68 °FSunny.3 mph49%30.30 "Hg10 mi
3:20 PM66 °FPassing clouds.6 mph52%30.30 "HgN/A
2:50 PM66 °FSunny.7 mph56%30.30 "Hg10 mi
2:20 PM64 °FSunny.5 mph56%30.33 "Hg10 mi
1:50 PM64 °FSunny.3 mph56%30.33 "Hg10 mi
1:20 PM64 °FScattered clouds.5 mph60%30.33 "HgN/A
12:50 PM63 °FSunny.5 mph59%30.33 "Hg10 mi
12:20 PM63 °FScattered clouds.6 mph64%30.33 "HgN/A
11:50 AM59 °FScattered clouds.6 mph82%30.33 "HgN/A
11:20 AM59 °FSunny.6 mph72%30.33 "Hg10 mi
10:50 AM59 °FScattered clouds.6 mph88%30.33 "HgN/A
10:20 AM59 °FPassing clouds.6 mph82%30.33 "HgN/A
9:50 AM59 °FSunny.7 mph94%30.33 "Hg10 mi
9:20 AM57 °FSunny.6 mph94%30.33 "Hg10 mi
8:50 AM57 °FSunny.3 mph94%30.30 "Hg10 mi
7:50 AM52 °FSunny.3 mph100%30.30 "HgN/A
8:50 PM
Mon, Aug 29
59 °FScattered clouds.6 mph100%30.21 "HgN/A
8:20 PM59 °FScattered clouds.7 mph100%30.18 "Hg5 mi
7:50 PM59 °FScattered clouds.8 mph100%30.18 "Hg4 mi
7:20 PM59 °FBroken clouds.8 mph100%30.18 "HgN/A
Weather by CustomWeather, © 2016

See weather overviewHow to use our weather pages